Theta_e
298 295 293 297 299 299 295 295 293 295 300 296 296 297 299 302 302 302 303 305 307 308 312 314 316 316 317 320 331 346 351 354 351 349 347 346 346 351 352 353 354 354 354 355
297 292 298 300 299 298 297 295 293 295 298 296 296 296 300 302 303 303 304 305 306 309 311 313 316 316 316 321 328 344 349 352 352 350 348 349 349 349 349 350 351 353 354 355
293 296 300 299 297 295 296 294 295 293 296 298 296 294 298 302 304 305 306 308 309 309 310 313 315 316 317 319 329 340 349 350 351 352 349 345 347 344 343 344 346 349 348 350
296 298 297 298 295 297 292 297 296 294 292 288 297 287 296 299 301 303 305 307 307 309 311 312 315 315 317 319 327 338 346 348 349 350 347 346 343 341 341 344 346 345 343 344
294 296 294 296 297 299 294 299 296 295 293 292 292 289 294 299 298 301 305 307 309 310 311 311 312 316 316 319 330 339 345 347 348 346 349 346 345 344 343 342 342 341 342 343
297 302 300 297 299 301 301 298 297 296 294 286 291 290 291 295 298 302 305 307 309 309 309 311 320 322 322 327 335 340 343 340 341 343 346 347 345 343 341 338 338 339 341 342
295 296 300 301 297 300 298 295 287 285 285 285 294 290 293 299 302 302 303 307 311 312 317 325 327 328 331 332 336 339 338 335 343 345 346 345 344 344 342 341 342 341 339 339
289 287 296 301 298 295 295 296 288 281 283 287 293 288 293 301 304 308 310 311 319 323 327 328 329 330 332 333 336 336 336 334 338 340 341 343 343 340 340 340 338 339 339 339
290 289 299 301 301 300 295 292 298 290 292 287 290 294 299 306 306 309 314 318 321 321 325 328 331 332 331 333 333 334 334 334 337 338 338 338 341 341 339 339 338 337 335 334
296 289 297 300 301 300 298 300 290 291 283 282 288 290 292 302 304 311 314 316 317 321 323 324 324 325 329 331 333 333 334 333 334 337 337 335 335 335 335 334 333 333 333 333
298 295 293 298 295 294 295 293 295 295 292 286 284 289 303 303 306 308 310 313 315 318 320 320 321 324 326 328 330 331 333 333 332 333 333 332 330 329 327 325 325 327 327 329
298 293 289 292 299 302 300 297 297 290 288 291 291 292 306 306 305 310 310 311 311 315 317 321 323 324 326 327 328 328 328 327 327 326 323 321 321 320 318 318 318 319 318 319
296 287 285 286 293 299 296 298 298 297 296 289 289 293 305 305 306 309 308 311 312 313 314 315 316 317 318 319 318 318 318 316 317 317 317 317 316 315 315 315 316 316 316 316
299 290 290 288 291 296 294 296 298 296 292 292 292 295 300 302 304 307 307 309 310 309 310 311 312 312 313 314 313 312 312 314 314 314 313 313 313 313 313 314 314 314 314 314
297 287 292 295 297 297 296 296 296 295 296 292 295 296 301 303 306 306 307 308 307 307 306 307 308 308 309 310 309 310 310 311 312 311 311 311 312 313 313 312 312 312 311 310
294 291 293 291 296 296 294 296 297 297 297 297 297 298 307 308 309 307 306 306 306 306 307 306 307 307 306 307 308 308 309 310 311 310 309 310 310 310 310 310 309 309 308 308
290 292 290 287 294 295 290 295 296 297 299 299 295 301 306 306 307 307 306 306 304 304 305 307 307 306 307 306 308 307 309 310 310 309 309 308 309 308 307 307 307 306 306 306
290 292 290 288 291 284 295 303 302 299 300 303 304 306 306 308 309 309 309 306 305 305 305 305 306 305 307 308 308 307 307 309 308 308 307 307 306 305 305 305 304 305 304 303
297 293 287 286 287 291 295 300 300 299 297 303 304 306 308 310 309 307 311 311 308 307 306 305 305 306 308 308 307 307 306 305 305 304 303 303 303 303 303 302 302 302 301 300
296 294 287 286 286 284 293 301 306 305 293 304 306 307 306 307 300 301 310 309 308 308 305 302 302 302 302 305 307 305 303 303 301 301 300 300 299 299 298 299 299 298 298 297
287 287 286 288 287 291 295 299 305 291 295 306 306 306 306 305 304 304 308 303 301 300 300 301 302 302 302 301 302 301 300 298 298 298 298 297 298 296 297 297 296 296 296 296
287 286 288 289 288 285 296 299 295 300 306 306 307 307 299 299 298 297 297 297 296 296 297 299 299 298 299 300 301 299 297 296 296 296 296 295 295 295 294 295 295 296 296 296
288 292 290 289 287 292 295 299 303 305 303 304 302 299 298 296 296 295 294 295 295 295 296 298 297 295 296 297 298 297 295 295 295 294 294 294 294 294 294 295 295 293 293 292
296 299 293 293 290 291 295 298 301 302 300 301 299 297 297 295 293 293 292 293 293 295 296 297 297 295 294 295 295 294 293 293 292 292 293 293 292 292 294 292 293 292 292 291
296 298 293 289 292 295 292 294 297 297 298 297 299 297 294 293 292 292 292 293 295 295 295 296 295 294 293 293 293 293 292 291 291 291 291 291 292 292 291 292 292 292 293 291
297 296 296 293 294 292 289 292 294 293 294 296 296 295 297 296 294 294 293 294 294 294 294 293 293 292 291 291 291 291 291 290 289 290 290 291 291 291 291 291 291 291 290 290
Wind_Speed
17 13 23 21 19 12 3 15 13 6 17 11 18 18 16 17 16 17 15 15 15 16 16 13 10 9 10 10 11 15 15 16 12 10 9 8 9 8 7 8 11 11 10 11
9 24 15 13 16 17 17 16 13 8 12 8 14 16 11 13 14 16 16 16 17 15 14 14 11 12 12 12 13 14 16 15 15 11 10 6 8 5 6 6 7 8 10 10
19 5 20 18 17 19 20 20 16 12 6 13 12 22 18 14 17 12 17 17 17 18 17 15 12 12 11 13 15 17 17 17 15 14 8 6 7 4 6 5 5 6 6 6
16 21 9 21 21 18 18 15 15 15 12 16 12 12 14 11 17 17 16 17 17 17 17 17 12 11 14 15 13 14 15 15 14 15 12 13 8 7 4 5 4 4 4 5
10 10 24 19 20 19 13 13 17 16 15 12 15 12 15 7 15 15 15 14 17 19 19 17 13 10 11 12 11 11 11 12 11 12 11 10 7 5 6 6 7 6 5 5
18 8 13 20 18 18 9 11 15 13 13 16 19 14 13 16 16 15 13 10 13 14 13 11 8 9 8 9 10 11 12 10 11 11 11 10 9 8 6 6 5 4 4 4
18 21 13 12 13 16 16 14 5 8 9 17 9 14 19 8 9 6 11 14 5 5 11 10 11 11 11 12 11 11 13 12 12 11 10 9 9 9 8 8 5 5 4 4
11 10 21 19 23 12 23 18 8 11 11 10 14 13 15 12 22 10 8 4 4 5 8 10 11 12 13 14 13 14 14 12 11 11 11 10 9 5 5 5 4 3 3 3
8 11 7 18 19 20 18 21 11 5 2 7 13 17 10 4 5 4 6 6 7 8 10 13 14 12 12 13 14 15 14 12 12 12 10 9 8 7 6 6 4 3 3 0
8 9 13 18 20 21 11 18 12 4 8 10 8 16 9 9 5 5 7 6 8 11 12 13 11 11 10 12 13 15 15 15 13 12 11 10 11 10 10 10 9 7 6 6
11 9 3 11 16 20 13 11 8 9 6 8 7 7 5 5 2 5 6 9 9 13 12 13 14 12 14 13 15 16 17 18 16 15 14 15 14 13 12 11 11 11 11 10
6 2 6 16 12 20 23 17 14 9 9 6 7 4 2 1 3 7 9 12 13 16 15 15 16 17 17 18 18 17 17 18 17 16 16 15 14 13 13 12 12 11 11 11
2 5 4 5 0 7 24 21 17 10 6 11 7 3 4 5 7 10 11 12 16 18 18 15 15 16 17 17 18 17 15 17 16 16 16 14 14 13 13 12 11 10 10 10
10 7 5 4 4 12 20 24 24 19 8 8 13 4 6 8 11 12 12 13 16 16 16 15 16 16 17 16 17 16 15 14 15 15 15 15 13 12 11 10 10 10 10 10
5 1 3 5 3 13 17 22 24 25 18 12 7 10 12 11 13 13 14 16 16 15 18 12 17 17 16 15 15 14 13 13 14 15 14 12 11 10 10 10 9 9 9 8
13 2 4 3 7 9 14 18 23 24 22 16 14 7 9 12 15 15 15 16 15 16 16 18 16 16 13 15 13 13 12 12 13 12 11 10 9 9 9 8 8 7 7 7
6 3 2 2 11 6 8 20 20 19 21 19 14 8 19 14 17 22 17 16 15 10 14 14 15 15 11 10 9 11 10 11 12 11 9 8 7 8 7 6 7 7 7 7
6 3 1 2 5 7 4 10 19 21 18 12 5 21 26 20 18 17 19 20 16 8 6 7 11 9 10 11 11 11 10 10 10 9 8 8 7 6 6 6 6 7 7 9
9 3 3 3 4 2 6 5 11 20 9 3 9 21 22 18 16 10 12 18 20 17 2 5 9 11 9 12 10 12 10 9 9 8 8 8 7 7 7 8 9 9 9 10
3 6 1 3 4 4 3 4 5 12 10 7 13 19 24 22 10 6 14 15 17 16 11 10 7 11 10 10 10 12 10 8 8 7 6 6 6 7 8 9 9 8 9 11
0 2 4 3 3 3 9 10 6 5 4 14 15 17 15 8 8 14 15 15 14 12 14 11 11 11 11 9 9 11 10 8 5 5 4 5 7 8 8 8 8 8 8 8
1 2 2 1 3 4 14 8 2 3 10 15 17 19 17 17 17 16 16 17 16 15 14 14 13 11 9 7 8 9 8 4 5 6 7 7 7 6 6 7 6 6 6 6
2 4 3 5 4 3 7 6 4 12 17 17 20 17 20 19 16 16 15 15 13 13 12 11 12 11 9 8 6 6 6 7 7 7 7 7 6 6 6 6 7 6 6 6
4 4 4 3 8 11 11 13 14 17 18 19 18 17 17 21 16 18 14 12 13 12 11 10 10 9 7 6 7 7 6 6 7 7 6 5 5 6 5 4 3 4 5 5
5 5 6 9 9 13 16 15 13 18 18 20 17 15 16 18 13 13 14 13 12 11 9 7 7 6 6 5 5 6 5 5 5 4 4 4 4 4 4 4 4 4 6 5
9 5 3 6 8 13 7 10 12 18 16 16 20 18 15 16 15 14 12 10 9 8 7 6 6 4 3 3 4 3 2 2 2 2 3 4 3 3 3 3 3 8 8 9
Wind_Direction
188 201 211 204 214 224 218 231 238 235 239 243 239 252 247 257 242 239 243 250 248 248 247 248 242 238 234 229 208 201 191 193 185 184 184 189 202 208 206 219 220 221 221 218
181 226 217 211 206 214 234 245 234 270 267 255 269 267 256 251 257 233 231 232 242 244 249 245 224 208 213 220 210 198 198 186 191 190 196 196 191 210 222 232 234 226 225 223
219 217 199 197 201 211 225 234 238 240 262 268 280 274 259 243 252 236 234 232 231 235 237 243 241 213 208 211 200 199 195 188 190 188 161 141 143 145 188 209 220 222 233 236
239 240 226 211 218 205 220 221 224 231 235 246 232 270 248 250 248 249 235 232 230 235 235 238 227 208 205 212 203 198 191 187 186 181 183 185 197 181 173 168 184 187 197 202
216 198 204 204 211 206 231 204 208 216 223 241 222 252 264 242 248 247 258 240 237 234 228 220 220 214 201 194 196 187 176 174 173 177 187 187 181 149 131 139 159 165 164 177
253 231 214 225 218 206 199 232 223 229 231 239 232 233 264 239 246 251 260 277 255 239 216 206 170 165 162 157 158 156 155 153 154 162 166 177 171 141 136 146 148 158 172 197
233 236 229 216 216 211 210 203 173 199 209 237 195 219 242 240 235 228 296 303 299 215 174 160 157 142 133 137 136 140 145 149 147 151 153 150 145 140 152 148 153 174 200 224
223 231 213 212 227 209 203 197 199 206 205 217 204 231 236 228 257 275 269 273 162 151 131 138 125 122 127 126 136 136 137 131 131 129 125 122 126 133 131 137 142 147 198 237
219 237 235 218 203 198 189 209 202 294 244 219 212 244 260 209 238 166 141 149 120 121 132 116 108 106 124 128 128 122 115 110 113 113 117 114 121 120 109 103 98 98 88 187
225 256 211 207 210 203 193 181 188 182 216 218 213 234 236 192 192 145 136 133 118 111 102 91 81 83 93 98 106 109 112 108 109 106 99 95 91 91 88 87 82 81 76 72
237 218 267 185 194 185 191 185 188 176 244 229 236 213 340 264 149 143 138 112 97 105 100 101 97 102 100 104 107 110 110 108 106 104 102 96 93 89 85 80 73 72 71 68
236 301 204 207 205 201 199 177 190 199 187 235 280 235 11 38 139 149 124 113 106 100 99 104 107 107 107 106 102 100 102 102 102 102 98 95 94 91 85 81 76 73 70 63
306 182 171 156 74 181 199 198 195 200 169 215 219 156 121 131 138 113 114 123 111 106 104 103 99 99 102 102 100 97 97 98 101 101 95 88 84 80 75 71 66 59 58 54
247 227 245 160 170 165 189 199 198 199 200 183 230 179 182 164 149 121 122 116 108 106 106 109 107 104 98 95 97 97 94 94 93 90 90 90 87 85 81 72 62 54 46 41
150 198 233 248 289 187 184 194 198 206 204 212 200 215 188 173 149 135 124 118 116 118 110 106 116 105 100 96 92 91 91 91 94 93 90 88 89 85 80 70 57 49 44 35
329 51 194 251 248 195 195 203 206 204 200 213 226 203 145 154 130 130 131 126 125 126 127 136 113 99 90 95 88 95 93 90 91 90 89 87 81 74 66 60 52 43 34 20
271 303 334 213 201 196 223 191 201 200 201 208 206 167 148 158 154 136 134 129 120 115 133 126 117 109 105 99 99 95 98 93 92 93 89 84 79 69 54 41 31 18 4 352
254 227 199 260 115 196 39 219 202 201 205 206 128 156 168 150 134 142 143 132 116 88 135 104 86 99 110 115 105 105 97 92 87 80 74 62 52 47 31 16 7 346 339 337
212 204 204 237 171 56 90 140 174 179 187 252 175 169 152 144 116 123 150 140 137 130 49 95 101 108 116 100 106 101 90 85 86 81 62 46 29 9 353 342 338 334 328 322
325 146 197 213 157 171 28 14 336 160 187 172 148 160 154 157 151 137 146 131 124 129 128 85 87 88 102 99 105 107 102 95 81 68 56 26 6 341 324 320 318 319 310 305
99 126 206 201 99 93 2 317 298 143 129 157 148 131 154 171 91 118 117 106 95 105 114 124 117 110 105 106 110 106 99 86 80 54 16 353 348 321 315 317 318 319 314 317
258 223 101 104 109 88 360 335 143 73 126 133 133 126 111 114 101 105 106 108 107 113 119 114 106 100 94 103 101 91 87 71 33 13 350 349 327 323 330 328 327 330 333 338
10 11 68 31 73 345 30 19 70 113 112 112 110 111 116 105 108 108 100 99 106 107 106 108 109 103 82 72 72 90 57 24 6 348 343 329 338 358 352 343 350 347 351 357
82 14 72 142 32 51 52 58 63 82 93 96 100 108 109 114 110 108 104 107 104 110 111 112 113 112 105 72 58 51 27 3 345 337 325 355 5 354 357 351 335 353 3 354
358 343 79 89 120 86 43 42 64 79 83 87 81 98 107 106 103 113 113 112 107 102 100 95 88 84 78 52 32 14 358 341 326 337 348 6 0 353 348 7 3 11 32 32
349 23 32 80 68 93 64 53 71 80 79 88 99 93 90 100 108 105 95 93 99 99 93 85 78 72 51 352 324 319 338 357 339 353 8 10 344 354 8 19 53 62 81 70